QPF
0.01 0.01 0.00 0.01 0.01 0.01 0.01 0.01 0.01 0.02 0.02 0.02 0.01 0.01 0.02 0.02 0.01 0.01 0.01 0.00 0.00 0.00 0.01 0.01 0.01 0.01 0.01 0.02 0.03 0.03 0.04 0.04 0.03 0.02 0.02 0.02 0.02 0.02 0.03 0.02 0.02 0.02 0.01 0.01
0.01 0.02 0.02 0.02 0.02 0.01 0.01 0.01 0.01 0.01 0.01 0.02 0.01 0.01 0.01 0.02 0.01 0.01 0.00 0.00 0.00 0.00 0.00 0.01 0.01 0.01 0.01 0.01 0.01 0.01 0.02 0.02 0.02 0.02 0.02 0.02 0.02 0.02 0.02 0.03 0.04 0.04 0.03 0.02
0.04 0.04 0.03 0.02 0.02 0.01 0.01 0.01 0.01 0.01 0.02 0.02 0.01 0.01 0.01 0.01 0.01 0.01 0.01 0.00 0.00 0.00 0.00 0.00 0.01 0.01 0.01 0.01 0.01 0.01 0.01 0.01 0.01 0.01 0.01 0.01 0.02 0.02 0.02 0.02 0.03 0.03 0.02 0.02
0.04 0.03 0.02 0.01 0.02 0.01 0.01 0.01 0.01 0.01 0.01 0.02 0.02 0.02 0.01 0.01 0.01 0.01 0.01 0.00 0.00 0.00 0.00 0.00 0.01 0.01 0.01 0.01 0.01 0.01 0.01 0.00 0.00 0.00 0.00 0.01 0.01 0.01 0.01 0.01 0.01 0.01 0.02 0.02
0.02 0.02 0.01 0.01 0.01 0.01 0.00 0.01 0.00 0.00 0.01 0.02 0.02 0.02 0.02 0.01 0.01 0.00 0.01 0.01 0.00 0.00 0.00 0.00 0.01 0.01 0.01 0.01 0.01 0.01 0.01 0.01 0.01 0.00 0.00 0.00 0.00 0.00 0.01 0.01 0.01 0.01 0.01 0.01
0.02 0.01 0.01 0.01 0.01 0.00 0.00 0.01 0.00 0.00 0.01 0.01 0.01 0.02 0.02 0.01 0.01 0.01 0.01 0.02 0.01 0.01 0.00 0.00 0.01 0.01 0.01 0.01 0.01 0.01 0.00 0.00 0.00 0.00 0.00 0.00 0.00 0.00 0.01 0.01 0.01 0.01 0.01 0.01
0.01 0.01 0.01 0.00 0.00 0.00 0.01 0.01 0.00 0.00 0.00 0.00 0.00 0.01 0.01 0.01 0.01 0.01 0.02 0.01 0.02 0.02 0.01 0.00 0.00 0.01 0.01 0.01 0.01 0.01 0.00 0.00 0.00 0.00 0.00 0.00 0.01 0.01 0.01 0.01 0.01 0.01 0.02 0.02
0.01 0.01 0.01 0.00 0.00 0.01 0.01 0.00 0.00 0.00 0.00 0.00 0.00 0.00 0.00 0.00 0.01 0.01 0.01 0.01 0.01 0.01 0.01 0.01 0.00 0.00 0.01 0.01 0.01 0.01 0.01 0.01 0.00 0.00 0.00 0.00 0.00 0.00 0.00 0.01 0.01 0.02 0.02 0.02
0.01 0.01 0.01 0.00 0.00 0.00 0.00 0.00 0.00 0.00 0.00 0.00 0.01 0.00 0.00 0.00 0.00 0.00 0.00 0.00 0.00 0.01 0.01 0.01 0.01 0.01 0.01 0.01 0.00 0.01 0.01 0.00 0.00 0.00 0.00 0.00 0.00 0.00 0.00 0.00 0.01 0.01 0.01 0.02
0.02 0.02 0.01 0.00 0.00 0.00 0.00 0.00 0.00 0.00 0.00 0.00 0.01 0.01 0.00 0.00 0.00 0.00 0.00 0.00 0.00 0.00 0.00 0.00 0.00 0.00 0.00 0.00 0.00 0.00 0.00 0.00 0.00 0.00 0.00 0.00 0.00 0.00 0.01 0.01 0.01 0.01 0.01 0.02
0.01 0.01 0.01 0.01 0.00 0.00 0.00 0.00 0.00 0.00 0.01 0.01 0.01 0.01 0.00 0.01 0.01 0.00 0.00 0.00 0.00 0.01 0.01 0.00 0.00 0.00 0.00 0.00 0.00 0.00 0.00 0.00 0.00 0.00 0.00 0.00 0.01 0.01 0.01 0.01 0.02 0.02 0.02 0.03
0.01 0.00 0.00 0.01 0.01 0.00 0.00 0.00 0.00 0.00 0.00 0.01 0.01 0.02 0.01 0.01 0.01 0.01 0.01 0.01 0.01 0.01 0.01 0.01 0.01 0.01 0.01 0.00 0.00 0.00 0.00 0.00 0.00 0.00 0.00 0.00 0.01 0.01 0.01 0.01 0.01 0.02 0.03 0.03
0.00 0.00 0.00 0.00 0.00 0.00 0.00 0.00 0.00 0.00 0.00 0.00 0.01 0.01 0.01 0.01 0.01 0.01 0.01 0.02 0.03 0.03 0.02 0.02 0.01 0.01 0.01 0.01 0.01 0.01 0.00 0.00 0.01 0.00 0.00 0.00 0.00 0.00 0.01 0.01 0.01 0.01 0.02 0.03
0.00 0.00 0.00 0.00 0.00 0.00 0.00 0.00 0.00 0.00 0.00 0.01 0.01 0.01 0.01 0.01 0.01 0.02 0.02 0.04 0.05 0.04 0.02 0.02 0.01 0.01 0.01 0.01 0.01 0.01 0.01 0.01 0.01 0.01 0.01 0.00 0.00 0.01 0.01 0.01 0.01 0.01 0.02 0.03
0.00 0.00 0.00 0.00 0.00 0.00 0.00 0.00 0.00 0.00 0.00 0.00 0.01 0.01 0.01 0.01 0.02 0.02 0.02 0.02 0.03 0.03 0.03 0.03 0.01 0.01 0.01 0.01 0.01 0.01 0.02 0.02 0.02 0.01 0.01 0.01 0.00 0.00 0.00 0.01 0.01 0.01 0.01 0.02
0.00 0.00 0.00 0.00 0.00 0.00 0.00 0.00 0.00 0.00 0.00 0.00 0.01 0.02 0.03 0.03 0.02 0.02 0.02 0.02 0.02 0.02 0.03 0.03 0.02 0.02 0.02 0.02 0.02 0.02 0.02 0.02 0.02 0.02 0.02 0.02 0.01 0.01 0.01 0.01 0.01 0.01 0.01 0.02
0.00 0.00 0.00 0.00 0.00 0.00 0.00 0.00 0.00 0.00 0.00 0.00 0.01 0.01 0.02 0.02 0.02 0.02 0.01 0.01 0.01 0.01 0.02 0.03 0.03 0.03 0.03 0.03 0.02 0.02 0.03 0.03 0.02 0.02 0.02 0.02 0.02 0.01 0.01 0.01 0.01 0.01 0.01 0.02
0.00 0.00 0.00 0.00 0.00 0.00 0.00 0.00 0.00 0.00 0.00 0.01 0.01 0.02 0.02 0.02 0.02 0.02 0.02 0.01 0.01 0.01 0.02 0.03 0.03 0.03 0.03 0.02 0.02 0.02 0.02 0.02 0.03 0.03 0.02 0.02 0.02 0.02 0.01 0.01 0.01 0.02 0.02 0.02
0.00 0.00 0.00 0.00 0.00 0.00 0.00 0.00 0.00 0.00 0.00 0.01 0.01 0.02 0.02 0.02 0.03 0.02 0.01 0.01 0.01 0.02 0.02 0.03 0.03 0.03 0.03 0.04 0.03 0.03 0.02 0.01 0.02 0.02 0.02 0.02 0.02 0.01 0.02 0.01 0.02 0.02 0.02 0.02
0.00 0.00 0.00 0.00 0.00 0.00 0.00 0.00 0.00 0.00 0.01 0.01 0.01 0.01 0.01 0.01 0.01 0.01 0.01 0.01 0.01 0.02 0.02 0.02 0.03 0.03 0.03 0.03 0.03 0.02 0.01 0.01 0.01 0.01 0.01 0.01 0.01 0.01 0.01 0.02 0.02 0.02 0.01 0.01
0.00 0.00 0.00 0.00 0.00 0.00 0.00 0.00 0.00 0.00 0.01 0.01 0.01 0.01 0.01 0.01 0.01 0.00 0.00 0.00 0.01 0.01 0.01 0.02 0.02 0.02 0.02 0.02 0.02 0.02 0.02 0.01 0.01 0.01 0.01 0.01 0.01 0.01 0.01 0.01 0.01 0.01 0.01 0.01
0.00 0.00 0.00 0.00 0.00 0.00 0.00 0.00 0.00 0.00 0.00 0.01 0.01 0.01 0.01 0.01 0.01 0.01 0.01 0.01 0.01 0.01 0.01 0.01 0.01 0.01 0.02 0.02 0.02 0.02 0.02 0.02 0.01 0.01 0.01 0.01 0.01 0.01 0.01 0.01 0.01 0.01 0.01 0.01
0.01 0.01 0.00 0.00 0.00 0.00 0.00 0.00 0.00 0.00 0.01 0.01 0.01 0.01 0.01 0.01 0.00 0.00 0.01 0.01 0.01 0.00 0.00 0.00 0.00 0.01 0.01 0.01 0.01 0.01 0.01 0.01 0.01 0.01 0.01 0.01 0.01 0.01 0.01 0.01 0.01 0.01 0.01 0.01
0.02 0.02 0.02 0.01 0.01 0.01 0.01 0.01 0.01 0.01 0.01 0.01 0.01 0.01 0.01 0.01 0.00 0.00 0.00 0.00 0.00 0.00 0.00 0.00 0.00 0.00 0.00 0.00 0.00 0.00 0.01 0.01 0.01 0.01 0.01 0.01 0.01 0.01 0.01 0.01 0.01 0.01 0.00 0.00
0.02 0.02 0.01 0.01 0.01 0.01 0.01 0.01 0.01 0.01 0.01 0.01 0.01 0.01 0.01 0.01 0.01 0.01 0.01 0.00 0.00 0.00 0.00 0.00 0.01 0.01 0.00 0.00 0.01 0.01 0.01 0.01 0.01 0.01 0.01 0.01 0.01 0.01 0.01 0.01 0.01 0.01 0.01 0.01
0.03 0.02 0.01 0.00 0.00 0.00 0.00 0.01 0.01 0.01 0.01 0.01 0.01 0.01 0.01 0.00 0.00 0.00 0.00 0.00 0.00 0.01 0.01 0.01 0.01 0.01 0.01 0.01 0.01 0.01 0.01 0.01 0.01 0.01 0.01 0.01 0.01 0.01 0.01 0.01 0.01 0.01 0.01 0.01
0.03 0.02 0.01 0.00 0.00 0.00 0.00 0.01 0.01 0.01 0.01 0.01 0.01 0.00 0.00 0.00 0.00 0.00 0.00 0.00 0.00 0.01 0.01 0.00 0.00 0.00 0.01 0.01 0.01 0.01 0.02 0.02 0.02 0.02 0.01 0.01 0.01 0.01 0.01 0.01 0.01 0.01 0.01 0.01
MSLP
1017.35 1017.08 1016.91 1016.86 1016.92 1017.05 1017.19 1017.28 1017.27 1017.11 1016.79 1016.31 1015.72 1015.05 1014.35 1013.66 1013.01 1012.41 1011.86 1011.33 1010.81 1010.29 1009.75 1009.22 1008.70 1008.24 1007.85 1007.57 1007.41 1007.36 1007.40 1007.51 1007.64 1007.76 1007.85 1007.89 1007.89 1007.86 1007.82 1007.81 1007.84 1007.92 1008.08 1008.30
1017.73 1017.50 1017.37 1017.35 1017.43 1017.57 1017.72 1017.82 1017.82 1017.67 1017.37 1016.91 1016.33 1015.66 1014.95 1014.25 1013.59 1012.97 1012.40 1011.88 1011.37 1010.87 1010.37 1009.87 1009.38 1008.93 1008.54 1008.22 1007.99 1007.85 1007.78 1007.77 1007.77 1007.78 1007.77 1007.72 1007.65 1007.56 1007.46 1007.39 1007.36 1007.39 1007.48 1007.63
1018.07 1017.88 1017.78 1017.78 1017.88 1018.02 1018.17 1018.27 1018.26 1018.11 1017.80 1017.34 1016.74 1016.07 1015.35 1014.64 1013.97 1013.36 1012.80 1012.30 1011.84 1011.39 1010.95 1010.50 1010.06 1009.62 1009.21 1008.85 1008.54 1008.29 1008.10 1007.95 1007.83 1007.71 1007.60 1007.47 1007.33 1007.18 1007.05 1006.93 1006.86 1006.84 1006.88 1006.97
1018.39 1018.23 1018.16 1018.18 1018.28 1018.42 1018.55 1018.62 1018.58 1018.39 1018.04 1017.54 1016.92 1016.21 1015.48 1014.76 1014.09 1013.49 1012.98 1012.53 1012.14 1011.78 1011.42 1011.04 1010.65 1010.24 1009.82 1009.41 1009.02 1008.66 1008.34 1008.06 1007.81 1007.58 1007.37 1007.16 1006.97 1006.78 1006.62 1006.48 1006.38 1006.32 1006.31 1006.35
1018.69 1018.57 1018.52 1018.55 1018.64 1018.76 1018.85 1018.87 1018.76 1018.50 1018.08 1017.52 1016.83 1016.08 1015.30 1014.56 1013.90 1013.33 1012.87 1012.50 1012.21 1011.94 1011.69 1011.41 1011.09 1010.72 1010.30 1009.86 1009.40 1008.95 1008.52 1008.13 1007.77 1007.44 1007.15 1006.90 1006.66 1006.45 1006.27 1006.11 1005.98 1005.88 1005.83 1005.82
1018.99 1018.89 1018.86 1018.90 1018.97 1019.05 1019.08 1019.02 1018.82 1018.46 1017.94 1017.27 1016.50 1015.67 1014.84 1014.08 1013.41 1012.88 1012.48 1012.20 1012.00 1011.86 1011.72 1011.55 1011.31 1011.01 1010.62 1010.17 1009.68 1009.17 1008.66 1008.19 1007.75 1007.37 1007.03 1006.74 1006.49 1006.27 1006.07 1005.90 1005.74 1005.61 1005.50 1005.42
1019.27 1019.20 1019.18 1019.22 1019.27 1019.30 1019.25 1019.09 1018.78 1018.30 1017.65 1016.86 1015.98 1015.06 1014.17 1013.36 1012.69 1012.18 1011.84 1011.65 1011.56 1011.53 1011.52 1011.46 1011.33 1011.10 1010.77 1010.34 1009.85 1009.32 1008.79 1008.28 1007.81 1007.40 1007.06 1006.76 1006.52 1006.30 1006.10 1005.90 1005.71 1005.53 1005.35 1005.20
1019.52 1019.48 1019.48 1019.51 1019.53 1019.50 1019.38 1019.11 1018.68 1018.06 1017.28 1016.36 1015.36 1014.34 1013.38 1012.54 1011.86 1011.37 1011.07 1010.95 1010.96 1011.04 1011.14 1011.20 1011.17 1011.03 1010.77 1010.40 1009.94 1009.44 1008.92 1008.42 1007.97 1007.58 1007.25 1006.99 1006.76 1006.55 1006.35 1006.14 1005.91 1005.67 1005.41 1005.17
1019.74 1019.73 1019.75 1019.77 1019.77 1019.68 1019.47 1019.10 1018.55 1017.81 1016.90 1015.86 1014.76 1013.65 1012.63 1011.75 1011.05 1010.58 1010.32 1010.26 1010.34 1010.51 1010.70 1010.85 1010.91 1010.86 1010.68 1010.38 1009.98 1009.53 1009.07 1008.62 1008.22 1007.88 1007.61 1007.39 1007.20 1007.02 1006.82 1006.60 1006.33 1006.02 1005.68 1005.33
1019.92 1019.94 1019.98 1020.00 1019.96 1019.83 1019.54 1019.08 1018.43 1017.59 1016.58 1015.45 1014.27 1013.11 1012.05 1011.14 1010.45 1009.98 1009.75 1009.72 1009.85 1010.07 1010.31 1010.53 1010.66 1010.67 1010.56 1010.32 1010.00 1009.63 1009.24 1008.86 1008.54 1008.28 1008.07 1007.91 1007.77 1007.63 1007.45 1007.21 1006.91 1006.54 1006.13 1005.68
1020.07 1020.11 1020.16 1020.17 1020.11 1019.92 1019.58 1019.05 1018.33 1017.42 1016.36 1015.19 1013.98 1012.81 1011.74 1010.84 1010.16 1009.71 1009.49 1009.47 1009.61 1009.85 1010.11 1010.34 1010.49 1010.54 1010.47 1010.29 1010.03 1009.73 1009.42 1009.13 1008.89 1008.71 1008.59 1008.50 1008.42 1008.32 1008.16 1007.93 1007.61 1007.20 1006.73 1006.22
1020.18 1020.24 1020.29 1020.28 1020.18 1019.96 1019.57 1018.99 1018.24 1017.31 1016.24 1015.09 1013.91 1012.77 1011.75 1010.90 1010.25 1009.82 1009.61 1009.59 1009.71 1009.92 1010.16 1010.36 1010.50 1010.54 1010.48 1010.32 1010.11 1009.86 1009.61 1009.40 1009.24 1009.15 1009.10 1009.08 1009.07 1009.01 1008.89 1008.68 1008.37 1007.96 1007.47 1006.92
1020.27 1020.32 1020.34 1020.31 1020.17 1019.90 1019.47 1018.88 1018.12 1017.21 1016.19 1015.11 1014.02 1012.98 1012.05 1011.27 1010.68 1010.29 1010.09 1010.05 1010.14 1010.29 1010.46 1010.60 1010.68 1010.68 1010.60 1010.44 1010.24 1010.03 1009.84 1009.69 1009.60 1009.57 1009.59 1009.64 1009.69 1009.69 1009.62 1009.45 1009.17 1008.79 1008.31 1007.78
1020.31 1020.34 1020.32 1020.23 1020.04 1019.73 1019.27 1018.67 1017.94 1017.09 1016.16 1015.19 1014.23 1013.32 1012.52 1011.86 1011.36 1011.02 1010.83 1010.77 1010.80 1010.88 1010.97 1011.02 1011.02 1010.96 1010.83 1010.65 1010.45 1010.26 1010.10 1010.00 1009.97 1009.99 1010.08 1010.18 1010.28 1010.34 1010.32 1010.21 1009.99 1009.66 1009.24 1008.75
1020.31 1020.29 1020.21 1020.05 1019.80 1019.43 1018.95 1018.35 1017.66 1016.89 1016.07 1015.24 1014.44 1013.70 1013.06 1012.53 1012.13 1011.85 1011.68 1011.61 1011.59 1011.59 1011.59 1011.55 1011.47 1011.33 1011.16 1010.95 1010.75 1010.57 1010.44 1010.37 1010.38 1010.45 1010.58 1010.73 1010.87 1010.98 1011.02 1010.96 1010.81 1010.56 1010.21 1009.81
1020.26 1020.17 1020.01 1019.77 1019.44 1019.01 1018.50 1017.91 1017.26 1016.58 1015.89 1015.21 1014.58 1014.01 1013.53 1013.14 1012.84 1012.63 1012.49 1012.41 1012.35 1012.29 1012.21 1012.10 1011.95 1011.76 1011.55 1011.33 1011.14 1010.98 1010.87 1010.84 1010.88 1010.98 1011.14 1011.32 1011.49 1011.64 1011.72 1011.72 1011.64 1011.46 1011.20 1010.89
1020.15 1019.98 1019.73 1019.40 1018.99 1018.50 1017.96 1017.37 1016.77 1016.16 1015.59 1015.05 1014.57 1014.17 1013.83 1013.57 1013.38 1013.24 1013.13 1013.05 1012.96 1012.86 1012.74 1012.58 1012.40 1012.19 1011.98 1011.78 1011.60 1011.48 1011.41 1011.41 1011.48 1011.61 1011.78 1011.98 1012.17 1012.33 1012.44 1012.49 1012.46 1012.35 1012.17 1011.93
1019.98 1019.74 1019.40 1018.99 1018.49 1017.95 1017.37 1016.78 1016.21 1015.68 1015.19 1014.77 1014.43 1014.15 1013.94 1013.79 1013.68 1013.60 1013.53 1013.45 1013.37 1013.26 1013.12 1012.96 1012.78 1012.60 1012.42 1012.26 1012.14 1012.06 1012.05 1012.09 1012.19 1012.33 1012.52 1012.71 1012.90 1013.06 1013.18 1013.25 1013.25 1013.18 1013.06 1012.89
1019.77 1019.46 1019.04 1018.55 1018.00 1017.40 1016.80 1016.21 1015.66 1015.17 1014.76 1014.43 1014.17 1013.99 1013.87 1013.79 1013.75 1013.71 1013.67 1013.62 1013.55 1013.46 1013.34 1013.22 1013.08 1012.95 1012.84 1012.76 1012.71 1012.70 1012.75 1012.84 1012.96 1013.12 1013.30 1013.49 1013.66 1013.80 1013.91 1013.97 1013.98 1013.94 1013.85 1013.71
1019.52 1019.15 1018.69 1018.14 1017.54 1016.91 1016.29 1015.71 1015.18 1014.72 1014.36 1014.08 1013.88 1013.76 1013.69 1013.65 1013.64 1013.63 1013.62 1013.60 1013.55 1013.50 1013.43 1013.37 1013.30 1013.26 1013.24 1013.24 1013.28 1013.36 1013.46 1013.59 1013.75 1013.91 1014.08 1014.25 1014.39 1014.51 1014.59 1014.64 1014.64 1014.60 1014.51 1014.39
1019.23 1018.83 1018.34 1017.77 1017.15 1016.52 1015.90 1015.32 1014.81 1014.38 1014.04 1013.79 1013.62 1013.52 1013.47 1013.45 1013.45 1013.46 1013.46 1013.46 1013.45 1013.44 1013.44 1013.44 1013.47 1013.51 1013.59 1013.69 1013.81 1013.96 1014.12 1014.30 1014.47 1014.64 1014.80 1014.94 1015.05 1015.14 1015.20 1015.22 1015.21 1015.16 1015.07 1014.94
1018.90 1018.50 1018.00 1017.44 1016.83 1016.21 1015.61 1015.06 1014.57 1014.17 1013.84 1013.61 1013.44 1013.34 1013.29 1013.26 1013.26 1013.27 1013.28 1013.29 1013.32 1013.35 1013.41 1013.48 1013.59 1013.72 1013.88 1014.06 1014.26 1014.47 1014.68 1014.89 1015.08 1015.24 1015.39 1015.51 1015.61 1015.67 1015.71 1015.72 1015.69 1015.64 1015.54 1015.41
1018.53 1018.14 1017.66 1017.12 1016.55 1015.98 1015.42 1014.91 1014.46 1014.08 1013.77 1013.54 1013.37 1013.26 1013.19 1013.15 1013.13 1013.12 1013.13 1013.16 1013.21 1013.28 1013.38 1013.51 1013.68 1013.88 1014.11 1014.35 1014.60 1014.86 1015.10 1015.32 1015.52 1015.69 1015.83 1015.94 1016.03 1016.09 1016.12 1016.13 1016.11 1016.06 1015.96 1015.83
1018.11 1017.73 1017.29 1016.80 1016.29 1015.78 1015.28 1014.83 1014.42 1014.08 1013.80 1013.57 1013.40 1013.28 1013.19 1013.12 1013.08 1013.06 1013.06 1013.09 1013.14 1013.24 1013.37 1013.54 1013.75 1013.99 1014.26 1014.54 1014.82 1015.10 1015.36 1015.59 1015.79 1015.97 1016.12 1016.23 1016.33 1016.40 1016.45 1016.48 1016.48 1016.44 1016.36 1016.23
1017.62 1017.28 1016.88 1016.46 1016.02 1015.58 1015.16 1014.77 1014.43 1014.13 1013.88 1013.67 1013.50 1013.37 1013.26 1013.17 1013.11 1013.07 1013.05 1013.07 1013.13 1013.23 1013.38 1013.56 1013.79 1014.05 1014.34 1014.63 1014.93 1015.21 1015.48 1015.72 1015.93 1016.12 1016.28 1016.42 1016.54 1016.65 1016.73 1016.79 1016.82 1016.82 1016.76 1016.64
1017.08 1016.77 1016.43 1016.07 1015.71 1015.35 1015.01 1014.70 1014.42 1014.18 1013.97 1013.79 1013.63 1013.49 1013.37 1013.27 1013.19 1013.13 1013.10 1013.10 1013.15 1013.25 1013.39 1013.58 1013.81 1014.07 1014.35 1014.65 1014.95 1015.23 1015.50 1015.75 1015.98 1016.19 1016.38 1016.55 1016.71 1016.86 1016.98 1017.09 1017.16 1017.18 1017.15 1017.05
1016.49 1016.22 1015.93 1015.64 1015.35 1015.08 1014.83 1014.60 1014.39 1014.21 1014.04 1013.89 1013.75 1013.62 1013.49 1013.38 1013.28 1013.20 1013.15 1013.15 1013.18 1013.27 1013.40 1013.58 1013.80 1014.05 1014.33 1014.63 1014.92 1015.21 1015.49 1015.75 1016.00 1016.24 1016.46 1016.67 1016.87 1017.06 1017.23 1017.37 1017.47 1017.53 1017.51 1017.42
Thickness
5675 5678 5677 5676 5677 5678 5677 5680 5678 5682 5682 5685 5687 5686 5686 5684 5681 5679 5678 5676 5674 5672 5671 5669 5667 5665 5663 5661 5659 5656 5653 5650 5648 5646 5643 5641 5638 5636 5634 5631 5630 5628 5626 5624
5666 5670 5671 5669 5673 5674 5672 5675 5675 5675 5676 5684 5684 5683 5680 5678 5674 5672 5671 5670 5669 5668 5666 5664 5663 5661 5658 5656 5653 5651 5648 5645 5642 5640 5637 5635 5633 5630 5628 5626 5624 5622 5621 5619
5659 5664 5664 5663 5673 5672 5671 5674 5674 5670 5675 5677 5674 5673 5672 5672 5669 5667 5666 5665 5664 5663 5662 5660 5659 5657 5653 5651 5648 5646 5643 5641 5638 5634 5632 5630 5628 5625 5622 5620 5618 5616 5615 5614
5652 5653 5646 5670 5677 5674 5671 5671 5673 5672 5671 5670 5668 5667 5667 5667 5665 5663 5662 5660 5659 5658 5657 5655 5654 5651 5649 5646 5643 5641 5638 5635 5632 5629 5626 5624 5622 5619 5617 5615 5613 5611 5609 5608
5644 5645 5655 5664 5666 5665 5663 5663 5669 5666 5665 5663 5663 5662 5662 5661 5659 5658 5656 5655 5653 5652 5651 5650 5647 5645 5642 5640 5638 5635 5632 5629 5627 5624 5621 5618 5615 5613 5611 5608 5607 5605 5603 5602
5637 5635 5641 5658 5662 5664 5660 5655 5663 5661 5659 5657 5656 5655 5657 5654 5652 5650 5648 5647 5646 5645 5644 5642 5640 5638 5636 5634 5631 5628 5625 5623 5621 5618 5615 5612 5609 5606 5604 5602 5600 5598 5597 5596
5632 5633 5645 5654 5654 5654 5646 5653 5656 5655 5653 5651 5649 5650 5649 5647 5644 5642 5640 5638 5638 5637 5635 5633 5632 5630 5628 5627 5624 5622 5619 5616 5613 5610 5607 5604 5601 5599 5596 5595 5593 5591 5590 5589
5630 5628 5636 5646 5646 5645 5649 5652 5650 5648 5647 5645 5643 5641 5639 5638 5636 5634 5632 5630 5629 5628 5626 5624 5623 5622 5621 5619 5616 5613 5610 5608 5605 5602 5599 5596 5593 5590 5589 5587 5585 5584 5582 5581
5632 5635 5639 5640 5641 5643 5644 5642 5641 5640 5639 5636 5633 5632 5631 5630 5629 5627 5625 5623 5621 5620 5618 5616 5615 5614 5613 5610 5607 5605 5602 5600 5597 5594 5590 5588 5585 5582 5580 5578 5577 5576 5574 5572
5627 5632 5633 5633 5634 5633 5634 5632 5632 5631 5629 5627 5625 5624 5623 5622 5620 5619 5618 5615 5614 5612 5611 5609 5607 5605 5604 5602 5599 5597 5595 5591 5588 5585 5582 5579 5576 5574 5571 5569 5568 5567 5565 5563
5620 5625 5625 5625 5625 5625 5624 5624 5623 5622 5621 5619 5617 5616 5615 5614 5612 5611 5609 5607 5605 5603 5601 5600 5598 5596 5595 5593 5591 5589 5587 5583 5579 5576 5573 5570 5568 5565 5563 5561 5558 5556 5555 5554
5616 5621 5620 5621 5619 5617 5615 5614 5613 5612 5611 5611 5609 5607 5606 5605 5604 5602 5601 5599 5596 5594 5591 5590 5589 5587 5586 5584 5583 5581 5578 5574 5570 5567 5564 5561 5559 5556 5551 5549 5546 5544 5542 5541
5612 5612 5613 5613 5611 5609 5607 5606 5605 5603 5602 5601 5600 5598 5596 5595 5593 5592 5591 5589 5587 5584 5583 5581 5579 5578 5576 5574 5573 5572 5569 5565 5561 5558 5556 5553 5550 5548 5545 5541 5537 5534 5532 5530
5603 5602 5601 5602 5602 5601 5599 5598 5596 5595 5593 5591 5590 5588 5586 5585 5583 5581 5579 5577 5576 5575 5574 5572 5569 5568 5566 5565 5563 5562 5559 5555 5552 5549 5547 5544 5542 5540 5537 5534 5531 5528 5524 5520
5595 5596 5597 5596 5594 5592 5591 5589 5588 5586 5583 5581 5580 5578 5576 5574 5572 5570 5568 5566 5565 5564 5563 5561 5560 5557 5556 5554 5553 5552 5549 5546 5543 5540 5537 5535 5532 5530 5527 5524 5522 5519 5516 5513
5589 5588 5587 5586 5585 5584 5582 5581 5580 5578 5575 5573 5570 5568 5566 5564 5562 5560 5558 5556 5555 5554 5552 5550 5549 5547 5545 5544 5543 5542 5539 5535 5533 5531 5528 5525 5522 5520 5517 5515 5512 5510 5507 5504
5580 5580 5579 5578 5578 5576 5574 5573 5572 5569 5567 5564 5562 5560 5557 5555 5553 5551 5549 5546 5545 5544 5542 5540 5538 5536 5535 5534 5533 5532 5530 5526 5522 5521 5518 5515 5512 5510 5507 5504 5502 5500 5497 5493
5576 5576 5575 5574 5571 5569 5567 5565 5563 5561 5558 5556 5554 5551 5549 5547 5546 5543 5540 5538 5536 5535 5533 5530 5528 5526 5525 5523 5522 5521 5519 5517 5514 5511 5508 5504 5502 5499 5496 5494 5492 5490 5487 5484
5567 5566 5565 5564 5562 5561 5559 5557 5554 5552 5550 5547 5545 5543 5541 5539 5537 5534 5532 5529 5528 5526 5524 5521 5518 5517 5515 5513 5511 5510 5508 5506 5504 5501 5497 5493 5491 5489 5486 5484 5482 5480 5478 5476
5557 5556 5556 5554 5552 5551 5549 5547 5545 5543 5541 5538 5537 5534 5532 5530 5527 5525 5523 5521 5519 5517 5514 5512 5510 5508 5506 5504 5500 5500 5498 5496 5493 5491 5488 5484 5481 5479 5476 5474 5473 5471 5469 5467
5547 5547 5546 5544 5543 5541 5539 5538 5536 5534 5532 5530 5528 5526 5524 5522 5519 5517 5515 5514 5511 5507 5504 5502 5501 5499 5496 5493 5490 5489 5487 5486 5483 5481 5478 5475 5472 5470 5467 5465 5464 5462 5460 5458
5538 5537 5536 5535 5533 5531 5530 5529 5527 5525 5523 5521 5520 5518 5516 5513 5511 5509 5508 5505 5502 5497 5496 5494 5492 5489 5486 5483 5482 5480 5477 5475 5473 5470 5468 5465 5463 5461 5459 5457 5455 5453 5451 5449
5529 5528 5526 5525 5523 5522 5520 5519 5518 5516 5514 5513 5511 5509 5507 5505 5503 5501 5499 5497 5493 5489 5487 5486 5482 5479 5476 5475 5474 5471 5469 5466 5464 5461 5459 5456 5454 5452 5450 5448 5446 5444 5442 5440
5520 5519 5517 5515 5514 5512 5511 5510 5508 5507 5506 5504 5502 5500 5498 5496 5494 5492 5490 5486 5483 5480 5479 5477 5473 5470 5467 5467 5465 5463 5460 5458 5455 5452 5450 5447 5445 5443 5441 5439 5437 5435 5433 5432
5510 5509 5508 5506 5505 5504 5503 5501 5499 5498 5496 5495 5493 5491 5489 5487 5485 5483 5481 5478 5474 5471 5470 5468 5465 5462 5460 5459 5456 5454 5452 5449 5447 5444 5441 5439 5437 5435 5433 5431 5429 5427 5425 5424
5502 5500 5499 5498 5497 5495 5494 5492 5491 5489 5488 5487 5485 5482 5480 5478 5476 5473 5471 5469 5466 5463 5462 5460 5457 5454 5453 5450 5448 5446 5443 5441 5438 5435 5433 5431 5429 5427 5425 5423 5421 5419 5417 5416
5493 5492 5490 5489 5487 5486 5485 5483 5482 5481 5480 5479 5477 5474 5472 5470 5467 5465 5463 5460 5458 5456 5453 5451 5449 5447 5444 5442 5440 5437 5435 5433 5431 5428 5426 5424 5422 5420 5418 5416 5414 5412 5410 5408